| time (UTC) | temp C | wind direction | speed KPH | gust KPH | rain 1hr cm | rain 24hr cm | rain mn cm | humidity % | barometer mb |
| 20260510094515 | 16 | 257 | 1.6 | 9.7 | 0.00 | 0.00 | 0.00 | 85 | 1011.4 |
| 20260510093003 | 16 | 203 | 0.0 | 4.8 | 0.00 | 0.00 | 0.00 | 85 | 1011.0 |
| 20260510091505 | 16 | 148 | 1.6 | 8.0 | 0.00 | 0.00 | 0.00 | 84 | 1010.3 |
| 20260510090104 | 16 | 167 | 4.8 | 9.7 | 0.00 | 0.00 | 0.00 | 83 | 1010.1 |
| 20260510084558 | 16 | 204 | 3.2 | 11.3 | 0.00 | 0.00 | 0.00 | 82 | 1010.5 |
| 20260510083056 | 15 | 213 | 3.2 | 8.0 | 0.00 | 0.00 | 0.00 | 82 | 1010.5 |
| 20260510081623 | 15 | 176 | 1.6 | 4.8 | 0.00 | 0.00 | 0.00 | 81 | 1010.5 |
| 20260510080057 | 15 | 176 | 0.0 | 4.8 | 0.00 | 0.00 | 0.00 | 82 | 1010.8 |
| 20260510074602 | 15 | 176 | 0.0 | 6.4 | 0.00 | 0.00 | 0.00 | 81 | 1010.6 |
| 20260510073055 | 15 | 179 | 0.0 | 4.8 | 0.00 | 0.00 | 0.00 | 81 | 1010.6 |
| 20260510071555 | 15 | 179 | 0.0 | 3.2 | 0.00 | 0.00 | 0.00 | 81 | 1010.4 |
| 20260510070056 | 15 | 180 | 0.0 | 0.0 | 0.00 | 0.00 | 0.00 | 82 | 1010.8 |
| 20260510064550 | 16 | 180 | 0.0 | 0.0 | 0.00 | 0.00 | 0.00 | 79 | 1011.0 |
| 20260510063047 | 16 | 180 | 0.0 | 0.0 | 0.00 | 0.00 | 0.00 | 76 | 1011.3 |
| 20260510061545 | 16 | 179 | 0.0 | 0.0 | 0.00 | 0.00 | 0.00 | 76 | 1011.4 |
| 20260510060051 | 16 | 180 | 0.0 | 0.0 | 0.00 | 0.00 | 0.00 | 77 | 1011.5 |
| 20260510054541 | 16 | 180 | 0.0 | 0.0 | 0.00 | 0.00 | 0.00 | 78 | 1011.3 |
| 20260510053041 | 15 | 180 | 0.0 | 0.0 | 0.00 | 0.00 | 0.00 | 77 | 1011.2 |
| 20260510051552 | 15 | 180 | 0.0 | 0.0 | 0.00 | 0.00 | 0.00 | 78 | 1010.9 |
| 20260510050038 | 15 | 180 | 0.0 | 0.0 | 0.00 | 0.00 | 0.00 | 77 | 1010.9 |
| 20260510044538 | 16 | 180 | 0.0 | 3.2 | 0.00 | 0.00 | 0.00 | 76 | 1010.7 |
| 20260510043042 | 16 | 180 | 0.0 | 0.0 | 0.00 | 0.00 | 0.00 | 70 | 1010.6 |
| 20260510041534 | 17 | 180 | 0.0 | 0.0 | 0.00 | 0.00 | 0.00 | 68 | 1010.4 |
| 20260510040033 | 17 | 180 | 0.0 | 0.0 | 0.00 | 0.00 | 0.00 | 67 | 1010.5 |
| 20260510034532 | 17 | 180 | 0.0 | 0.0 | 0.00 | 0.00 | 0.00 | 65 | 1010.3 |
| 20260510033030 | 17 | 180 | 0.0 | 0.0 | 0.00 | 0.00 | 0.00 | 64 | 1010.0 |
| 20260510031547 | 17 | 180 | 0.0 | 0.0 | 0.00 | 0.00 | 0.00 | 66 | 1009.7 |
| 20260510030029 | 18 | 180 | 0.0 | 0.0 | 0.00 | 0.00 | 0.00 | 59 | 1009.6 |
| 20260510024535 | 18 | 180 | 0.0 | 0.0 | 0.00 | 0.00 | 0.00 | 58 | 1009.3 |
| 20260510023042 | 18 | 180 | 0.0 | 0.0 | 0.00 | 0.05 | 0.00 | 56 | 1009.1 |
| 20260510021530 | 18 | 180 | 0.0 | 0.0 | 0.00 | 0.05 | 0.00 | 57 | 1008.8 |
| 20260510020029 | 19 | 180 | 0.0 | 4.8 | 0.00 | 0.05 | 0.00 | 56 | 1008.5 |
| 20260510014528 | 20 | 180 | 0.0 | 4.8 | 0.00 | 0.05 | 0.00 | 58 | 1008.2 |
| 20260510013028 | 20 | 98 | 0.0 | 0.0 | 0.00 | 0.25 | 0.00 | 56 | 1007.8 |
| 20260510011527 | 22 | 98 | 0.0 | 3.2 | 0.00 | 0.25 | 0.00 | 52 | 1007.7 |
| 20260510010029 | 23 | 98 | 1.6 | 4.8 | 0.00 | 0.25 | 0.00 | 44 | 1007.5 |
| 20260510004526 | 23 | 92 | 1.6 | 6.4 | 0.00 | 0.25 | 0.00 | 39 | 1007.3 |
| 20260510003026 | 23 | 95 | 3.2 | 6.4 | 0.00 | 0.25 | 0.00 | 40 | 1007.3 |
| 20260510001526 | 24 | 97 | 3.2 | 9.7 | 0.00 | 0.25 | 0.00 | 41 | 1007.3 |
| 20260510000026 | 25 | 93 | 3.2 | 9.7 | 0.00 | 0.25 | 0.00 | 40 | 1007.4 |
| 20260509234524 | 25 | 97 | 8.0 | 11.3 | 0.00 | 0.25 | 0.00 | 37 | 1007.6 |
| 20260509233022 | 25 | 121 | 3.2 | 8.0 | 0.00 | 0.25 | 0.00 | 35 | 1007.7 |
| 20260509231522 | 25 | 136 | 6.4 | 8.0 | 0.00 | 0.25 | 0.00 | 38 | 1007.9 |
| 20260509230021 | 25 | 128 | 6.4 | 12.9 | 0.00 | 0.25 | 0.00 | 36 | 1007.8 |
| 20260509224520 | 25 | 94 | 3.2 | 14.5 | 0.00 | 0.25 | 0.00 | 35 | 1007.8 |
| 20260509223025 | 26 | 121 | 0.0 | 6.4 | 0.00 | 0.25 | 0.00 | 34 | 1008.0 |
| 20260509221524 | 26 | 178 | 3.2 | 6.4 | 0.00 | 0.25 | 0.00 | 34 | 1007.9 |
| 20260509220018 | 26 | 188 | 1.6 | 8.0 | 0.00 | 0.25 | 0.00 | 32 | 1007.9 |
| 20260509214517 | 26 | 196 | 3.2 | 11.3 | 0.00 | 0.25 | 0.00 | 34 | 1007.9 |
| 20260509213017 | 26 | 167 | 4.8 | 8.0 | 0.00 | 0.25 | 0.00 | 35 | 1007.9 |
| 20260509211534 | 26 | 146 | 3.2 | 9.7 | 0.00 | 0.25 | 0.00 | 39 | 1008.1 |
| 20260509210017 | 26 | 157 | 0.0 | 8.0 | 0.00 | 0.25 | 0.00 | 40 | 1008.3 |
| 20260509204516 | 26 | 140 | 9.7 | 14.5 | 0.00 | 0.25 | 0.00 | 38 | 1008.5 |
| 20260509203033 | 26 | 315 | 1.6 | 6.4 | 0.00 | 0.25 | 0.00 | 36 | 1008.6 |
| 20260509201520 | 26 | 333 | 3.2 | 9.7 | 0.00 | 0.25 | 0.00 | 36 | 1008.7 |
| 20260509200013 | 26 | 150 | 1.6 | 8.0 | 0.00 | 0.25 | 0.00 | 35 | 1008.8 |
| 20260509194512 | 26 | 348 | 3.2 | 8.0 | 0.00 | 0.25 | 0.00 | 34 | 1008.8 |
| 20260509193012 | 26 | 22 | 3.2 | 11.3 | 0.00 | 0.25 | 0.00 | 36 | 1008.9 |
| 20260509191513 | 25 | 70 | 3.2 | 6.4 | 0.00 | 0.25 | 0.00 | 37 | 1009.0 |
| 20260509190011 | 25 | 81 | 6.4 | 17.7 | 0.00 | 0.25 | 0.00 | 41 | 1009.1 |
| 20260509184509 | 25 | 296 | 1.6 | 8.0 | 0.00 | 0.25 | 0.00 | 38 | 1009.1 |
| 20260509183012 | 25 | 119 | 1.6 | 12.9 | 0.00 | 0.25 | 0.00 | 41 | 1009.3 |
| 20260509181507 | 25 | 153 | 3.2 | 11.3 | 0.00 | 0.25 | 0.00 | 38 | 1009.3 |
| 20260509180003 | 25 | 226 | 4.8 | 11.3 | 0.00 | 0.25 | 0.00 | 46 | 1009.4 |
| 20260509174502 | 24 | 240 | 1.6 | 4.8 | 0.00 | 0.25 | 0.00 | 45 | 1009.4 |
| 20260509173108 | 24 | 284 | 1.6 | 12.9 | 0.00 | 0.25 | 0.00 | 50 | 1009.6 |
| 20260509171608 | 23 | 267 | 1.6 | 8.0 | 0.00 | 0.25 | 0.00 | 49 | 1009.7 |
| 20260509170054 | 23 | 170 | 1.6 | 8.0 | 0.00 | 0.25 | 0.00 | 62 | 1009.6 |
| 20260509164552 | 22 | 219 | 0.0 | 6.4 | 0.00 | 0.25 | 0.00 | 62 | 1009.6 |
| 20260509163059 | 22 | 147 | 3.2 | 6.4 | 0.00 | 0.25 | 0.00 | 61 | 1009.7 |
| 20260509161547 | 22 | 250 | 1.6 | 8.0 | 0.00 | 0.25 | 0.00 | 68 | 1009.9 |
| 20260509160045 | 21 | 277 | 1.6 | 9.7 | 0.00 | 0.25 | 0.00 | 73 | 1010.0 |
| 20260509154543 | 21 | 240 | 0.0 | 8.0 | 0.00 | 0.25 | 0.00 | 75 | 1009.9 |
| 20260509153040 | 20 | 248 | 4.8 | 9.7 | 0.00 | 0.25 | 0.00 | 76 | 1009.7 |
| 20260509151537 | 20 | 212 | 0.0 | 6.4 | 0.00 | 0.25 | 0.00 | 80 | 1009.9 |
| 20260509150134 | 19 | 237 | 1.6 | 6.4 | 0.00 | 0.25 | 0.00 | 81 | 1009.9 |
| 20260509144529 | 18 | 178 | 3.2 | 9.7 | 0.00 | 0.25 | 0.00 | 82 | 1009.8 |
| 20260509143029 | 18 | 219 | 0.0 | 6.4 | 0.00 | 0.25 | 0.00 | 87 | 1009.8 |
| 20260509141529 | 17 | 200 | 3.2 | 8.0 | 0.00 | 0.25 | 0.00 | 90 | 1009.7 |
| 20260509140022 | 16 | 179 | 1.6 | 6.4 | 0.00 | 0.25 | 0.00 | 93 | 1009.7 |
| 20260509134517 | 15 | 175 | 1.6 | 8.0 | 0.00 | 0.25 | 0.00 | 94 | 1009.5 |
| 20260509133014 | 15 | 188 | 3.2 | 6.4 | 0.00 | 0.25 | 0.00 | 95 | 1009.4 |
| 20260509131516 | 14 | 286 | 3.2 | 4.8 | 0.00 | 0.25 | 0.00 | 95 | 1009.3 |
| 20260509130014 | 13 | 325 | 1.6 | 4.8 | 0.00 | 0.25 | 0.00 | 95 | 1009.2 |
| 20260509124507 | 12 | 325 | 3.2 | 6.4 | 0.00 | 0.25 | 0.00 | 95 | 1009.1 |
| 20260509123007 | 12 | 325 | 0.0 | 0.0 | 0.00 | 0.25 | 0.00 | 95 | 1009.1 |
| 20260509121510 | 11 | 325 | 0.0 | 0.0 | 0.00 | 0.25 | 0.00 | 95 | 1008.9 |
| 20260509120013 | 11 | 325 | 0.0 | 0.0 | 0.00 | 0.25 | 0.00 | 95 | 1008.7 |
| 20260509114506 | 10 | 325 | 0.0 | 0.0 | 0.00 | 0.25 | 0.00 | 95 | 1008.6 |
| 20260509113006 | 10 | 325 | 0.0 | 0.0 | 0.00 | 0.25 | 0.00 | 95 | 1008.6 |
| 20260509111505 | 10 | 325 | 0.0 | 1.6 | 0.00 | 0.25 | 0.00 | 94 | 1008.4 |
| 20260509110003 | 10 | 325 | 0.0 | 1.6 | 0.00 | 0.25 | 0.00 | 94 | 1008.3 |
| 20260509104501 | 10 | 325 | 0.0 | 1.6 | 0.00 | 0.25 | 0.00 | 94 | 1008.1 |
| 20260509103100 | 11 | 325 | 0.0 | 3.2 | 0.00 | 0.25 | 0.00 | 94 | 1008.0 |
| 20260509101601 | 11 | 325 | 1.6 | 4.8 | 0.00 | 0.25 | 0.00 | 94 | 1008.0 |
| 20260509100111 | 11 | 346 | 1.6 | 4.8 | 0.00 | 0.25 | 0.00 | 94 | 1007.9 |